Location: Stoke Bliss
(52.2667°N, 2.5167°W)
Time: 17:03:45
(UTC+00:00)

Cosmos 2084 Rocket - Pass Details

Date: 03 March 2021
Orbit: 527 x 653 km, 62.8° (Epoch: 16 April)

Event Time Altitude Azimuth Distance (km) Brightness Sun altitude
Rises 18:21:26 0° 312° (NW) 2,784 7.6 -5.1°
Reaches altitude 10° 18:23:38 10° 313° (NW) 1,903 6.8 -5.4°
Maximum altitude 18:27:56 88° 38° (NE) 604 3.5 -6.1°
Drops below altitude 10° 18:32:25 10° 133° (SE) 1,972 5.7 -6.8°
Sets 18:34:44 0° 134° (SE) 2,894 6.6 -7.1°
